Location: Nelson
(41.2830°S, 173.2830°E)
Time: 14:00:41
(UTC+12:00)

Daily predictions for brighter satellites

Satellite Brightness Start Highest point End
(mag) Time Altitude Azimuth Time Altitude Azimuth Time Altitude Azimuth
Cosmos 1354 Rocket 4.0 17:38:58 10° SSW 17:44:19 72° ESE 17:49:33 10° NNE
USA 234 3.7 17:38:28 10° ESE 17:44:50 48° NE 17:51:08 10° NNW
Cosmos 1633 4.2 17:42:56 10° NE 17:45:09 16° E 17:47:24 10° SE
SL-16 R/B 3.7 17:41:55 10° NE 17:45:23 17° E 17:48:51 10° ESE
Cosmos 1076 Rocket 4.3 17:43:49 10° NNE 17:47:35 30° E 17:51:25 10° SSE
Cosmos 1606 3.8 17:45:18 10° SSE 17:48:24 23° ESE 17:51:27 10° NE
IRIDIUM 104 4.5 17:44:18 10° S 17:49:31 57° E 17:54:40 10° NNE
Atlas Centaur 2 3.9 17:46:23 10° NW 17:50:18 24° N 17:54:58 10° NE
CZ-4B R/B 1.5 17:47:44 10° NE 17:50:39 42° ESE 17:53:40 10° S
Cosmos 2151 4.4 17:49:23 10° NE 17:52:19 18° E 17:55:17 10° SE
Meteor PRIRODA 3.7 17:51:49 10° SSE 17:55:36 64° ENE 17:59:17 10° N
IRIDIUM 114 4.3 17:53:23 10° S 17:58:42 69° E 18:03:55 10° N
Cosmos 1437 Rocket 3.3 17:55:30 10° S 17:59:01 33° ESE 18:02:29 10° NE
ERS-2 3.8 18:00:10 10° E 18:02:13 14° ESE 18:04:17 10° SSE
ATLAS CENTAUR Rocket 4.1 18:02:03 10° NNW 18:03:30 11° N 18:04:49 10° NNE
Cosmos 1356 3.4 18:00:13 10° N 18:03:39 89° WSW 18:07:09 10° S
Genesis I 3.9 17:59:57 10° NW 18:03:50 53° SW 18:07:41 10° SSE
Cosmos 1242 Rocket 4.0 18:01:37 10° SSE 18:04:15 18° ESE 18:06:51 10° ENE
deb Chang Zheng 4 3.9 18:01:41 10° SSE 18:05:56 47° E 18:10:10 10° N
Meteor 2-15 4.4 18:00:28 10° S 18:06:38 77° E 18:12:42 10° NNE
ATLAS 3B R/B 3.1 17:59:21 10° NW 18:06:54 80° SW 18:14:20 10° SSE
Cosmos 2333 Rocket 3.9 18:02:13 10° WNW 18:07:10 30° SW 18:12:10 10° S
IRIDIUM 103 4.3 18:02:30 10° S 18:07:50 84° E 18:13:05 10° N
Envisat 3.1 18:02:44 10° SSE 18:07:55 88° WSW 18:13:02 10° NNW
Cosmos 2058 3.1 18:03:51 10° NNW 18:07:59 75° W 18:12:13 10° S
H-2A R/B 3.7 18:09:18 10° S 18:13:06 51° WSW 18:16:46 10° NNW
Cosmos 2237 Rocket 2.2 18:07:32 10° NNW 18:13:13 85° ENE 18:18:59 10° SSE
SJ 16-02 2.3 18:09:48 10° S 18:13:35 26° ESE 18:17:21 10° ENE
SMAP 3.7 18:10:03 10° SSE 18:14:23 35° E 18:18:39 10° NNE
Cosmos 1943 Rocket 3.5 18:15:34 10° S 18:19:45 20° SE 18:21:53 17° E
NOAA 6 4.2 18:15:41 10° SSE 18:20:46 52° E 18:25:46 10° N
H-2A R/B 4.1 18:21:39 15° ENE 18:21:39 15° ENE 18:23:15 10° NE
Cosmos 1553 Rocket 4.1 18:16:24 10° S 18:22:23 50° ESE 18:28:17 10° NNE
Cosmos 1689 Rocket 2.8 18:20:52 10° NE 18:23:24 29° ESE 18:26:00 10° S
Cosmos 1867 4.5 18:19:26 10° SSW 18:24:04 28° SE 18:26:56 18° E
SL-8 R/B 4.2 18:21:00 10° W 18:25:46 52° SSW 18:29:12 18° SE
CSL-04 DEB 4.4 18:22:07 10° NNE 18:26:04 81° WNW 18:30:06 10° SSW
Okean O Rocket 2.5 18:34:14 23° ESE 18:35:48 28° E 18:39:40 10° NNE
PSLV R/B 3.6 18:33:08 10° SSE 18:36:58 74° ENE 18:40:41 10° N
Lacrosse 5 2.0 18:33:54 10° SW 18:38:58 57° SE 18:42:25 20° ENE
Cosmos 2278 Rocket 2.8 18:33:38 10° SSW 18:39:17 61° WNW 18:44:52 10° N
Cosmos 2369 Rocket 3.8 18:39:00 10° S 18:41:48 16° SE 18:41:48 16° SE
Cosmos 1777 Rocket 4.2 18:37:55 10° SSW 18:43:14 74° WNW 18:48:27 10° N
MOS 1-B 4.4 18:39:28 10° SSE 18:45:18 61° ENE 18:51:04 10° N
Cosmos 1933 3.7 18:42:12 10° S 18:46:13 43° ESE 18:50:09 10° NNE
CZ-4B R/B 3.4 18:44:37 11° SSE 18:49:31 45° E 18:54:36 10° N
CZ-2C R/B 3.4 18:45:36 10° N 18:51:10 60° W 18:56:45 10° SSW
Cosmos 468 Rocket 4.4 18:50:54 10° N 18:55:52 41° ENE 18:57:19 34° ESE
NOAA 11 4.3 18:51:18 10° S 18:56:50 80° WSW 19:02:19 10° NNW
Cosmos 990 Rocket 4.5 18:52:42 10° S 18:57:30 36° ESE 18:57:40 36° ESE
Okean 3 Rocket 4.2 18:54:40 10° NNE 18:57:59 35° ENE 18:57:59 35° ENE
Cosmos 1898 Rocket 4.4 18:57:03 10° S 19:00:49 30° SE 19:00:49 30° SE
Meteor 2-3 Rocket 3.6 18:56:22 10° N 19:01:57 72° E 19:07:41 10° SSE
Cosmos 1655 Rocket 3.9 18:56:28 10° N 19:02:44 71° E 19:09:10 10° SSE
H-2A R/B 4.2 19:06:48 11° NNE 19:06:48 11° NNE 19:06:55 10° NNE
Cosmos 1766 Rocket 3.9 19:00:30 10° NNE 19:04:23 45° ENE 19:04:23 45° ENE
PAYLOAD B 4.2 18:59:46 10° SSE 19:05:27 90° W 19:11:01 10° NNW
Cosmos 1461 3.5 19:01:37 10° SW 19:05:56 61° WNW 19:10:24 10° NNE
ATLAS CENTAUR R/B 2.1 19:15:34 10° SSW 19:18:32 39° S 19:18:32 39° S
Cosmos 1939 Rocket 3.2 19:17:52 23° S 19:20:23 67° WSW 19:24:32 10° NNW
Cosmos 883 Rocket 4.4 19:19:43 10° S 19:25:59 69° E 19:32:13 10° NNE
Lacrosse 5 rocket 3.7 19:22:51 10° N 19:23:59 15° NNE 19:23:59 15° NNE
CZ-2C R/B 2.9 19:25:08 27° S 19:27:47 79° WSW 19:32:35 10° NNW
USA 234 3.8 19:24:16 27° SSE 19:27:51 54° SSW 19:34:13 10° WNW
SL-16 R/B 2.4 19:23:12 10° NNW 19:28:50 68° WSW 19:32:00 27° SSE
Radarsat Rocket 4.3 19:24:37 10° S 19:30:39 64° WSW 19:36:24 10° NNW
ERS-2 3.5 19:31:54 10° N 19:35:22 39° W 19:38:54 10° SSW
Atlas Centaur 2 4.5 19:35:07 10° NW 19:38:42 17° NNW 19:41:59 12° NNE
Cosmos 2266 Rocket 4.2 19:35:11 10° NNW 19:41:14 69° W 19:47:26 10° S
Cosmos 2297 3.9 19:38:47 10° SSW 19:44:35 73° WNW 19:46:44 40° N
SJ 16-02 3.3 19:48:17 10° SW 19:52:06 28° W 19:55:53 10° NNW
H-2A R/B 4.4 19:58:12 25° WNW 19:58:12 25° WNW 20:00:07 10° NW
Cosmos 1943 Rocket 2.5 19:58:21 10° SSW 20:03:29 63° WSW 20:03:29 63° WSW
Cosmos 1607 4.2 20:00:33 10° SW 20:06:38 62° WNW 20:07:09 60° NW
Cosmos 1867 4.3 20:02:41 10° SW 20:07:41 49° WNW 20:07:41 49° WNW
Cosmos 1763 Rocket 4.4 20:03:22 10° NW 20:08:28 46° WSW 20:08:35 46° WSW
Cosmos 2315 Rocket 4.3 20:05:19 10° SSW 20:11:36 64° W 20:17:51 10° N
Okean O Rocket 3.5 20:11:42 28° WSW 20:12:03 28° WSW 20:15:52 10° NW
Lacrosse 5 3.8 20:17:28 10° WSW 20:21:38 25° WNW 20:21:42 25° WNW
Cosmos 2369 Rocket 4.0 20:21:39 10° SSW 20:23:38 23° SSW 20:23:38 23° SSW
NOSS 3-1 (C) 4.4 20:34:47 10° NW 20:42:39 67° WNW 20:42:39 67° WNW
